{"data":{"norad_id":62123,"intl_designator":"2024-222K","name":"STARLINK-32626","alt_names":[],"object_type":"PAYLOAD","status":"ACTIVE","operator":null,"country":"US","launch_date":"2024-11-27","launch_site_code":"AFETR","launch_vehicle":null,"mission":null,"orbit_class":"UNKNOWN","rcs_meters":null,"size_class":null,"mass_kg":null,"dimensions":null,"purposes":["comms"],"wikipedia_slug":null,"has_3d_model":false,"image_url":null,"decayed_at":null,"tle_current":{"epoch":"2026-09-18T21:18:26.074656Z","epoch_age_seconds":321628,"freshness":"STALE","line1":"1 62123U 24222K   26261.88780179  .00017958  00000+0  66029-3 0  9996","line2":"2 62123  43.0022 125.3125 0000901 261.3826  98.6923 15.27591011102297","mean_motion":15.27591011,"eccentricity":9.01e-5,"inclination_deg":43.0022,"raan_deg":125.3125,"arg_perigee_deg":261.3826,"mean_anomaly_deg":98.6923,"bstar":0.00066029,"rev_number":10229,"period_min":94.266069231275,"perigee_km":482.39793544592,"apogee_km":483.63431523911,"semimajor_km":6861.1531253425,"source":"CELESTRAK","updated_at":"2026-09-22T09:00:49.525472Z"}}}